| time (UTC) | temp F | wind direction | speed MPH | gust MPH | rain 1hr in | rain 24hr in | rain mn in | humidity % | barometer mb |
| 20260902204516 | 75 | 148 | 0.0 | 3.0 | 0.00 | 0.00 | 0.00 | 60 | 999.0 |
| 20260902203010 | 74 | 120 | 0.0 | 2.0 | 0.00 | 0.00 | 0.00 | 57 | 999.0 |
| 20260902201507 | 74 | 120 | 0.0 | 1.0 | 0.00 | 0.00 | 0.00 | 58 | 999.2 |
| 20260902200005 | 73 | 110 | 0.0 | 1.0 | 0.00 | 0.00 | 0.00 | 59 | 999.3 |
| 20260902194501 | 72 | 135 | 0.0 | 0.0 | 0.00 | 0.00 | 0.00 | 61 | 999.4 |
| 20260902193100 | 72 | 142 | 0.0 | 1.0 | 0.00 | 0.00 | 0.00 | 60 | 999.5 |
| 20260902191559 | 72 | 141 | 0.0 | 0.0 | 0.00 | 0.00 | 0.00 | 60 | 999.4 |
| 20260902190104 | 72 | 136 | 0.0 | 2.0 | 0.00 | 0.00 | 0.00 | 63 | 999.4 |
| 20260902184554 | 72 | 125 | 0.0 | 1.0 | 0.00 | 0.00 | 0.00 | 59 | 999.4 |
| 20260902183057 | 71 | 129 | 0.0 | 2.0 | 0.00 | 0.00 | 0.00 | 60 | 999.5 |
| 20260902181550 | 71 | 82 | 0.0 | 1.0 | 0.00 | 0.00 | 0.00 | 61 | 999.4 |
| 20260902180049 | 70 | 139 | 0.0 | 2.0 | 0.00 | 0.00 | 0.00 | 60 | 999.3 |
| 20260902174546 | 69 | 108 | 0.0 | 3.0 | 0.00 | 0.00 | 0.00 | 64 | 999.3 |
| 20260902173045 | 68 | 136 | 0.0 | 0.0 | 0.00 | 0.00 | 0.00 | 61 | 999.3 |
| 20260902171544 | 69 | 140 | 0.0 | 2.0 | 0.00 | 0.00 | 0.00 | 62 | 999.5 |
| 20260902170043 | 69 | 124 | 0.0 | 1.0 | 0.00 | 0.00 | 0.00 | 61 | 999.5 |
| 20260902164543 | 69 | 122 | 0.0 | 2.0 | 0.00 | 0.00 | 0.00 | 61 | 999.4 |
| 20260902163039 | 68 | 141 | 0.0 | 1.0 | 0.00 | 0.00 | 0.00 | 61 | 999.3 |
| 20260902161544 | 68 | 162 | 0.0 | 4.0 | 0.00 | 0.00 | 0.00 | 63 | 999.4 |
| 20260902160036 | 66 | 131 | 0.0 | 2.0 | 0.00 | 0.00 | 0.00 | 66 | 999.5 |
| 20260902154533 | 66 | 120 | 0.0 | 3.0 | 0.00 | 0.00 | 0.00 | 64 | 999.6 |
| 20260902153030 | 65 | 122 | 0.0 | 3.0 | 0.00 | 0.00 | 0.00 | 66 | 999.3 |
| 20260902151529 | 61 | 146 | 0.0 | 3.0 | 0.00 | 0.00 | 0.00 | 71 | 999.3 |
| 20260902150033 | 60 | 142 | 1.0 | 4.0 | 0.00 | 0.00 | 0.00 | 73 | 999.4 |
| 20260902144528 | 58 | 45 | 0.0 | 5.0 | 0.00 | 0.00 | 0.00 | 77 | 999.4 |
| 20260902143027 | 57 | 46 | 0.0 | 5.0 | 0.00 | 0.00 | 0.00 | 78 | 999.3 |
| 20260902141534 | 56 | 43 | 0.0 | 1.0 | 0.00 | 0.00 | 0.00 | 79 | 999.3 |
| 20260902140026 | 56 | 43 | 0.0 | 1.0 | 0.00 | 0.00 | 0.00 | 79 | 999.4 |
| 20260902134523 | 56 | 42 | 0.0 | 2.0 | 0.00 | 0.00 | 0.00 | 78 | 999.5 |
| 20260902133019 | 56 | 41 | 0.0 | 4.0 | 0.00 | 0.00 | 0.00 | 78 | 998.8 |
| 20260902131522 | 56 | 26 | 0.0 | 2.0 | 0.00 | 0.00 | 0.00 | 78 | 998.9 |
| 20260902130017 | 55 | 130 | 0.0 | 1.0 | 0.00 | 0.00 | 0.00 | 78 | 999.2 |
| 20260902124516 | 56 | 139 | 0.0 | 3.0 | 0.00 | 0.00 | 0.00 | 77 | 999.3 |
| 20260902123014 | 56 | 65 | 0.0 | 1.0 | 0.00 | 0.00 | 0.00 | 77 | 999.0 |
| 20260902121514 | 56 | 65 | 0.0 | 1.0 | 0.00 | 0.00 | 0.00 | 77 | 999.2 |
| 20260902120015 | 56 | 67 | 0.0 | 1.0 | 0.00 | 0.00 | 0.00 | 77 | 999.3 |
| 20260902114521 | 56 | 69 | 0.0 | 1.0 | 0.00 | 0.00 | 0.00 | 76 | 999.4 |
| 20260902113010 | 56 | 68 | 0.0 | 1.0 | 0.00 | 0.00 | 0.00 | 76 | 999.4 |
| 20260902111508 | 56 | 68 | 0.0 | 1.0 | 0.00 | 0.00 | 0.00 | 76 | 999.4 |
| 20260902110012 | 56 | 128 | 0.0 | 1.0 | 0.00 | 0.00 | 0.00 | 75 | 999.5 |
| 20260902104506 | 57 | 13 | 0.0 | 2.0 | 0.00 | 0.00 | 0.00 | 75 | 999.3 |
| 20260902103002 | 57 | 8 | 0.0 | 2.0 | 0.00 | 0.00 | 0.00 | 75 | 999.3 |
| 20260902101501 | 57 | 15 | 0.0 | 2.0 | 0.00 | 0.00 | 0.00 | 75 | 999.3 |
| 20260902100059 | 57 | 8 | 0.0 | 1.0 | 0.00 | 0.00 | 0.00 | 75 | 999.3 |
| 20260902094557 | 58 | 26 | 0.0 | 0.0 | 0.00 | 0.00 | 0.00 | 74 | 999.3 |
| 20260902093054 | 58 | 340 | 0.0 | 1.0 | 0.00 | 0.00 | 0.00 | 73 | 999.5 |
| 20260902091553 | 59 | 149 | 0.0 | 2.0 | 0.00 | 0.00 | 0.00 | 72 | 999.6 |
| 20260902090051 | 59 | 94 | 0.0 | 1.0 | 0.00 | 0.00 | 0.00 | 72 | 999.6 |
| 20260902084552 | 59 | 132 | 0.0 | 3.0 | 0.00 | 0.00 | 0.00 | 71 | 999.7 |
| 20260902083046 | 60 | 116 | 0.0 | 2.0 | 0.00 | 0.00 | 0.00 | 71 | 999.6 |
| 20260902081549 | 60 | 131 | 0.0 | 1.0 | 0.00 | 0.00 | 0.00 | 70 | 1000.0 |
| 20260902080041 | 61 | 176 | 0.0 | 1.0 | 0.00 | 0.00 | 0.00 | 70 | 999.9 |
| 20260902074540 | 61 | 160 | 0.0 | 2.0 | 0.00 | 0.00 | 0.00 | 69 | 999.9 |
| 20260902073034 | 62 | 327 | 0.0 | 2.0 | 0.00 | 0.00 | 0.00 | 68 | 999.9 |
| 20260902071532 | 62 | 127 | 0.0 | 2.0 | 0.00 | 0.00 | 0.00 | 67 | 1000.1 |
| 20260902070028 | 63 | 64 | 0.0 | 3.0 | 0.00 | 0.00 | 0.00 | 65 | 1000.1 |
| 20260902064525 | 64 | 146 | 1.0 | 4.0 | 0.00 | 0.00 | 0.00 | 64 | 1000.2 |
| 20260902063024 | 64 | 41 | 0.0 | 3.0 | 0.00 | 0.00 | 0.00 | 63 | 1000.3 |
| 20260902061527 | 65 | 66 | 0.0 | 4.0 | 0.00 | 0.00 | 0.00 | 63 | 1000.2 |
| 20260902060020 | 65 | 150 | 1.0 | 4.0 | 0.00 | 0.00 | 0.00 | 62 | 1000.3 |
| 20260902054518 | 65 | 61 | 0.0 | 1.0 | 0.00 | 0.00 | 0.00 | 62 | 1000.5 |
| 20260902053029 | 65 | 62 | 0.0 | 1.0 | 0.00 | 0.00 | 0.00 | 62 | 1000.6 |
| 20260902051515 | 65 | 63 | 0.0 | 4.0 | 0.00 | 0.00 | 0.00 | 63 | 1000.8 |
| 20260902050015 | 65 | 68 | 0.0 | 0.0 | 0.00 | 0.00 | 0.00 | 62 | 1000.9 |
| 20260902044514 | 66 | 65 | 0.0 | 1.0 | 0.00 | 0.00 | 0.00 | 62 | 1000.9 |
| 20260902043014 | 66 | 217 | 0.0 | 1.0 | 0.00 | 0.00 | 0.00 | 61 | 1000.9 |
| 20260902041513 | 67 | 327 | 0.0 | 2.0 | 0.00 | 0.00 | 0.00 | 61 | 1000.9 |
| 20260902040013 | 67 | 61 | 0.0 | 0.0 | 0.00 | 0.00 | 0.00 | 61 | 1001.0 |
| 20260902034512 | 67 | 62 | 0.0 | 1.0 | 0.00 | 0.00 | 0.00 | 62 | 1001.1 |
| 20260902033015 | 68 | 111 | 0.0 | 1.0 | 0.00 | 0.00 | 0.00 | 63 | 1001.0 |
| 20260902031511 | 69 | 116 | 0.0 | 0.0 | 0.00 | 0.00 | 0.00 | 62 | 1001.0 |
| 20260902030010 | 70 | 116 | 0.0 | 1.0 | 0.00 | 0.00 | 0.00 | 61 | 1001.1 |
| 20260902024511 | 70 | 117 | 0.0 | 1.0 | 0.00 | 0.00 | 0.00 | 59 | 1001.1 |
| 20260902023009 | 71 | 63 | 0.0 | 0.0 | 0.00 | 0.00 | 0.00 | 57 | 1000.9 |
| 20260902021512 | 72 | 65 | 0.0 | 0.0 | 0.00 | 0.00 | 0.00 | 55 | 1001.0 |
| 20260902020008 | 73 | 62 | 0.0 | 0.0 | 0.00 | 0.00 | 0.00 | 53 | 1000.9 |
| 20260902014520 | 74 | 63 | 0.0 | 0.0 | 0.00 | 0.00 | 0.00 | 52 | 1000.9 |
| 20260902013007 | 75 | 66 | 0.0 | 1.0 | 0.00 | 0.00 | 0.00 | 50 | 1000.9 |
| 20260902011506 | 76 | 142 | 0.0 | 3.0 | 0.00 | 0.00 | 0.00 | 48 | 1001.0 |
| 20260902010007 | 77 | 136 | 0.0 | 2.0 | 0.00 | 0.00 | 0.00 | 46 | 1001.1 |
| 20260902004506 | 77 | 316 | 0.0 | 4.0 | 0.00 | 0.00 | 0.00 | 46 | 1001.2 |
| 20260902003003 | 78 | 141 | 0.0 | 7.0 | 0.00 | 0.00 | 0.00 | 44 | 1001.3 |
| 20260902001502 | 78 | 23 | 0.0 | 3.0 | 0.00 | 0.00 | 0.00 | 43 | 1001.3 |
| 20260901234615 | 79 | 147 | 0.0 | 6.0 | 0.00 | 0.00 | 0.00 | 43 | 1001.3 |
| 20260901233103 | 79 | 137 | 0.0 | 3.0 | 0.00 | 0.00 | 0.00 | 41 | 1001.5 |
| 20260901231558 | 80 | 129 | 0.0 | 4.0 | 0.00 | 0.00 | 0.00 | 42 | 1001.6 |
| 20260901230135 | 80 | 127 | 1.0 | 4.0 | 0.00 | 0.00 | 0.00 | 42 | 1001.6 |
| 20260901224552 | 80 | 135 | 1.0 | 5.0 | 0.00 | 0.00 | 0.00 | 42 | 1001.7 |
| 20260901223107 | 80 | 193 | 1.0 | 5.0 | 0.00 | 0.00 | 0.00 | 40 | 1001.8 |
| 20260901221547 | 80 | 65 | 0.0 | 2.0 | 0.00 | 0.00 | 0.00 | 43 | 1002.0 |
| 20260901220056 | 80 | 26 | 0.0 | 3.0 | 0.00 | 0.00 | 0.00 | 41 | 1002.2 |
| 20260901214542 | 80 | 83 | 0.0 | 3.0 | 0.00 | 0.00 | 0.00 | 43 | 1002.3 |
| 20260901213045 | 80 | 66 | 0.0 | 2.0 | 0.00 | 0.00 | 0.00 | 44 | 1002.4 |
| 20260901211548 | 79 | 139 | 0.0 | 3.0 | 0.00 | 0.00 | 0.00 | 45 | 1002.5 |
| 20260901210034 | 79 | 136 | 1.0 | 5.0 | 0.00 | 0.00 | 0.00 | 46 | 1002.6 |